Location: Newark
(49.2191°N, 12.6671°E)
Time: 19:58:02
(UTC+00:00)

Tiros 1 despin weight - Visible Passes

Search period start: 18 January 2020 00:00
Search period end: 28 January 2020 00:00
Orbit: 593 x 643 km, 48.2° (Epoch: 18 January)

Date Brightness Start Highest point End Pass type
(mag) Time Alt. Az. Time Alt. Az. Time Alt. Az.
18 Jan ? 16:12:23 10° W 16:17:02 79° S 16:21:45 10° E visible
18 Jan ? 17:53:57 10° W 17:58:26 46° SSW 18:00:12 31° SSE visible
18 Jan ? 19:36:33 10° WSW 19:37:17 12° WSW 19:37:17 12° WSW visible
19 Jan ? 16:28:56 10° W 16:33:34 70° SSW 16:38:15 10° ESE visible
19 Jan ? 18:10:38 10° W 18:14:47 31° SSW 18:16:30 24° S visible
20 Jan ? 16:45:29 10° W 16:50:03 55° SSW 16:54:39 10° ESE visible
20 Jan ? 18:27:35 10° W 18:31:01 20° SW 18:32:59 16° S visible
21 Jan ? 17:02:06 10° W 17:06:28 39° SSW 17:10:50 10° SE visible
21 Jan ? 18:45:24 10° WSW 18:47:09 12° SW 18:48:54 10° SSW visible
22 Jan ? 17:18:53 10° W 17:22:47 26° SSW 17:26:40 10° SSE visible
23 Jan ? 17:36:03 10° W 17:38:57 16° SW 17:41:53 10° S visible
25 Jan ? 16:27:11 10° W 16:30:44 22° SW 16:34:18 10° SSE visible
26 Jan ? 16:44:45 10° WSW 16:46:53 13° SW 16:49:01 10° SSW visible
